Home > Weather > Jacksonville > Past weeks

Flag for USA Past Weather in Jacksonville, North Carolina, USA — Yesterday and Last 2 Weeks

Now
72 °F

Clear.


Feels Like: 68 °F
Forecast: 72 / 85 °F
Wind: No wind

Location: Jacksonville - New River

Current Time: Jun 28, 2016 at 7:41:46 AM

Latest Report: Jun 28, 2016 at 6:56 AM


Visibility: 10 mi

Pressure: 30.00 "Hg

Humidity: 93%

Dew Point: 70 °F

Location of JacksonvilleLocation

Past Weather in Jacksonville — Graph

°F

Jacksonville Temperature Yesterday

Maximum temperature yesterday: 88 °F (at 1:56 PM)
Minimum temperature yesterday: 71 °F (at 5:56 AM)
Average temperature yesterday: 79 °F

High & Low Weather Summary for the Past Weeks

 TemperatureHumidityPressure
High94 °F (Jun 23, 2:56 PM)94% (Jun 14, 10:56 PM)30.36 "Hg (Jun 14, 10:56 PM)
Low58 °F (Jun 20, 3:56 AM)30% (Jun 13, 1:56 PM)29.65 "Hg (Jun 17, 3:56 AM)
Average78 °F69%30.02 "Hg
* Reported Jun 13 5:56 AM — Jun 28 5:56 AM, Jacksonville, Weather by CustomWeather, © 2016

Note: Actual official high and low records may vary slightly from our data, if they occured in-between our weather recording intervals... More about our weather records

Advertising

Jacksonville Weather History for the Previous 24 Hours

Scroll right to see more
 ConditionsComfort  
Time TempWeatherWind HumidityBarometerVisibility
5:56 AM
Tue, Jun 28
71 °FClear.No wind93%30.00 "Hg10 mi
4:56 AM71 °FClear.No wind93%29.99 "Hg10 mi
3:56 AM71 °FPassing clouds.No wind93%29.99 "Hg10 mi
2:56 AM71 °FPassing clouds.3 mph93%29.99 "Hg10 mi
1:56 AM73 °FPassing clouds.3 mph90%30.00 "Hg10 mi
12:56 AM72 °FPassing clouds.No wind91%30.02 "Hg10 mi
11:56 PM
Mon, Jun 27
73 °FPassing clouds.No wind88%30.03 "Hg10 mi
10:56 PM74 °FPassing clouds.3 mph91%30.03 "Hg10 mi
9:56 PM77 °FPassing clouds.No wind79%30.04 "Hg10 mi
8:56 PM77 °FScattered clouds.No wind79%30.02 "Hg10 mi
7:56 PM79 °FScattered clouds.7 mph74%30.02 "Hg10 mi
6:56 PM82 °FPassing clouds.13 mph65%30.01 "Hg10 mi
5:56 PM84 °FPassing clouds.13 mph59%30.01 "Hg10 mi
4:56 PM85 °FPassing clouds.12 mph55%30.02 "Hg10 mi
3:56 PM87 °FSunny.13 mph53%30.03 "Hg10 mi
2:56 PM88 °FSunny.9 mph50%30.04 "Hg10 mi
1:56 PM88 °FPassing clouds.3 mph50%30.07 "Hg10 mi
12:56 PM87 °FSunny.7 mph50%30.08 "Hg10 mi
11:56 AM84 °FScattered clouds.7 mph59%30.10 "Hg10 mi
10:56 AM83 °FSunny.7 mph65%30.11 "Hg10 mi
9:56 AM81 °FPassing clouds.7 mph65%30.11 "Hg10 mi
8:56 AM79 °FSunny.5 mph77%30.11 "Hg10 mi
7:56 AM75 °FSunny.5 mph88%30.11 "Hg10 mi
Weather by CustomWeather, © 2016

See weather overviewHow to use our weather pages